Regional Weather Roundup
Issued by NWS Midland/Odessa, TX

Skip options and go directly to product.
Home | Oldest Version | Previous Version | Current Version | All | Text Only | Save Text | Print | Product List | Glossary On

Skip product version selection by date and time.   
045
ASUS44 KMAF 042310
RWRMAF
MIDLAND AREA WEATHER ROUNDUP
NATIONAL WEATHER SERVICE MIDLAND TX
600 PM CDT WED MAY 04 2016

...IN SOUTHWEST TEXAS AND SOUTHEAST NEW MEXICO...

CITY           SKY/WX    TMP DP  RH WIND       PRES   REMARKS
ALPINE         SUNNY     78  21  11 NE7       30.22F
ANDREWS        FAIR      83  27  13 N6        30.10F
ARTESIA        SUNNY     81  28  15 E6        30.12F
BIG SPRING     SUNNY     81  32  17 NE6       30.10F
CARLSBAD       SUNNY     80  28  15 S3        30.10F
DRYDEN           N/A     88  31  13 MISG      30.03F
FORT STOCKTON  SUNNY     83  28  13 N6        30.10F
GUAD PASS      SUNNY     73  22  14 E18G24    30.22F
HOBBS          SUNNY     81  23  12 VRB5      30.13F
MARFA          SUNNY     77  23  13 VRB5      30.18F
MIDLAND AIRPK  SUNNY     85  24  11 NE8       30.09F
MIDLAND INTL   SUNNY     85  26  11 N7G17     30.09F
ODESSA         SUNNY     85  22  10 VRB5      30.10F
PECOS          SUNNY     85  24  11 NE8       30.07F
PRESIDIO       FAIR      89  32  13 MISG      30.02F
SEMINOLE       SUNNY     83  28  13 NE7       30.11F
SNYDER           N/A     82  37  20 NW10      30.08F
WINK           SUNNY     87  27  11 NE3       30.07F
$$
...OTHER STATIONS IN TEXAS...

CITY           SKY/WX    TMP DP  RH WIND       PRES   REMARKS
ABILENE        SUNNY     80  41  24 N10       30.06F
AMARILLO       SUNNY     78  36  21 VRB3      30.14F
AUSTIN         SUNNY     85  50  29 NW5       29.97F
BROWNSVILLE    SUNNY     80  56  43 E7        30.01F
CORPUS CHRISTI MOSUNNY   88  48  25 NE8G18    29.97F
DALLAS FTW     SUNNY     82  47  29 NW14      29.97S
DEL RIO        SUNNY     87  43  21 VRB3      29.99F
EL PASO        MOSUNNY   84  22  10 MISG      30.08F
HOUSTON INT    SUNNY     81  51  35 NW15G22   29.95F
LUBBOCK        SUNNY     82  27  13 N9G18     30.10F
SAN ANGELO     SUNNY     83  38  20 N9        30.07F
SAN ANTONIO    MOSUNNY   86  47  25 N8        29.99F
WACO           SUNNY     82  47  29 NW12      29.98S
WICHITA FALLS  NOT AVBL
$$
...OTHER LOCATIONS IN NEW MEXICO...

CITY           SKY/WX    TMP DP  RH WIND       PRES   REMARKS
ALAMAGORDO     SUNNY     82  25  12 S8G17     30.12F
ALBUQUERQUE    MOSUNNY   76  19  11 SW12      30.18F
CANNON AFB     SUNNY     78  26  14 NE7       30.15F
CLOVIS         SUNNY     79  34  19 NE9       30.17F
HOLLOMAN AFB   SUNNY     82  20  10 W13       30.09F
ROSWELL        SUNNY     82  23  11 W3        30.12F
RUIDOSO        SUNNY     68  18  14 S8        30.29S
SANTA FE       SUNNY     74  17  11 VRB6      30.22F
TRUTH OR CONSE SUNNY     80  22  11 E10       30.13F
TUCUMCARI      SUNNY     80  24  12 S5        30.13F
$$

USA.gov is the U.S. government's official web portal to all federal, state and local government web resources and services.